[[{"header":{"parameterUnit":"m.s-1","parameterCategory":2,"la1":30.2991,"la2":30.254,"lo1":-89.0895,"lo2":-89.0444,"dy":0.0017,"dx":0.0017,"nx":28,"ny":28,"refTime":"2025-04-23T21:00:00:Z","depth":"0","parameterNumber":2,"parameterNumberName":"U-component_of_CURRENTS"},"data":[0,0,0,0,0,0,0,0,0,0,0,0,0,0,0,0,0,0,0,0,0,0,0,0,0,0,0,0,0,0,0,0,0,0,0,0,0,0,0,0,0,0,0,0,0,0,0,0,0,0,0,0,0,0,0,0,0,0,0.1797,0.1797,0,0.1758,0.1757,0.1757,0.1741,0.1742,0.1742,0.1743,0.1684,0.1682,0.1681,0,0,0,0,0,0,0,0,0,0,0,0,0,0.1824,0.1824,0.1797,0.1797,0.1796,0.1758,0.1757,0.1756,0.1741,0.1742,0.1742,0.1743,0.1685,0.1683,0.168,0,0,0,0,0,0,0,0,0,0,0,0,0,0.1798,0.1823,0.1797,0.1787,0.1786,0.1758,0.1757,0.1756,0.1741,0.1742,0.1743,0.1743,0.1686,0.1683,0.168,0.1648,0,0,0.1671,0.167,0,0,0,0,0,0,0,0,0.18,0.1797,0.1789,0.1788,0.1787,0.1759,0.1746,0.172,0.1741,0.1754,0.1743,0.1744,0.1709,0.1705,0.1691,0.1645,0.1643,0.1671,0.1669,0.1668,0.1667,0,0,0,0,0,0,0,0.1801,0.1798,0.1777,0.1789,0.1787,0.1774,0.1771,0.1741,0.1725,0.1753,0.1753,0.1755,0.1708,0.1693,0.1689,0.1642,0.1671,0.1668,0.1666,0.1665,0.1592,0.1592,0,0,0,0,0,0,0.1815,0.18,0.1779,0.1777,0.1799,0.1773,0.177,0.1764,0.1726,0.1722,0.1754,0.1754,0.1698,0.1693,0.1687,0.1671,0.1668,0.1665,0.1663,0.1592,0.1592,0.1591,0,0,0,0,0,0,0.1815,0.1813,0.178,0.1791,0.1786,0.1773,0.1766,0.1763,0.1753,0.1727,0.1723,0.1749,0.1698,0.1691,0.1664,0.1668,0.1664,0.1661,0.1592,0.1592,0.1592,0.1623,0,0,0,0,0,0,0.1816,0.1813,0.1811,0.1792,0.1787,0.1768,0.1766,0.1762,0.1755,0.1754,0.1721,0.1716,0.1698,0.1668,0.1661,0.1663,0.1658,0.1592,0.1592,0.1592,0.1622,0.1624,0.1625,0,0,0,0,0,0.1817,0.1806,0.1811,0.1809,0.1785,0.1768,0.1763,0.1753,0.1754,0.1747,0.1727,0.1718,0.1662,0.1665,0.1657,0.1659,0.1592,0.1592,0.1592,0.1621,0.1623,0.1625,0,0,0,0,0,0,0.181,0.1803,0.1808,0.1795,0.1789,0.1767,0.1758,0.1755,0.1731,0.1731,0.1708,0.1701,0.1682,0.1661,0.1667,0.1637,0.1628,0.1626,0.1653,0.1655,0.1657,0.1698,0.1656,0,0,0,0,0,0.1812,0.1805,0.1799,0.1789,0.1787,0.1775,0.1767,0.1763,0.1743,0.1734,0.1714,0.1691,0.1671,0.1657,0.1635,0.161,0.1645,0.1607,0.1609,0.161,0.1638,0.1684,0.1694,0.159,0.159,0.159,0,0,0.1806,0.1803,0.1799,0.1789,0.1781,0.1776,0.177,0.1759,0.1759,0.173,0.1715,0.1694,0.1666,0.1646,0.1635,0.163,0.166,0.161,0.1612,0.1639,0.1685,0.1696,0.1705,0.159,0.159,0.159,0,0,0.1794,0.1791,0.1784,0.1782,0.178,0.1774,0.1775,0.1759,0.1755,0.1737,0.1723,0.1708,0.1667,0.1656,0.1643,0.1638,0.1668,0.1627,0.1665,0.1708,0.1718,0.1728,0.18,0.1816,0.1625,0.1625,0.1625,0,0.1791,0.1785,0.1779,0.1777,0.178,0.1777,0.1775,0.1768,0.1747,0.1753,0.1738,0.1712,0.1676,0.1676,0.1673,0.1643,0.1691,0.166,0.1714,0.1724,0.1733,0.1805,0.1822,0.1626,0.1626,0.1626,0.1626,0,0.1779,0.1778,0.1773,0.1776,0.1774,0.1771,0.1772,0.1773,0.177,0.177,0.1774,0.1738,0.1733,0.1709,0.1687,0.1726,0.1749,0.1715,0.1718,0.1746,0.1819,0.1836,0.1628,0.1628,0.1628,0.1627,0,0,0.176,0.1766,0.1766,0.1774,0.1778,0.1774,0.1783,0.1795,0.182,0.1802,0.1837,0.1793,0.18,0.1788,0.1763,0.1791,0.1878,0.1787,0.1789,0.1876,0.2018,0.1983,0.1998,0.1864,0.1867,0.1869,0.2051,0,0.1757,0.1759,0.1764,0.177,0.177,0.1785,0.1798,0.1812,0.1827,0.1858,0.1851,0.1863,0.1822,0.1829,0.1853,0.1873,0.1923,0.1835,0.1965,0.197,0.1947,0.2015,0.1913,0.2062,0.2068,0.207,0.2072,0,0.1742,0.1748,0.1754,0.178,0.1784,0.1791,0.1834,0.1847,0.1894,0.1912,0.1944,0.195,0.1991,0.1945,0.2037,0.1992,0.2021,0.2036,0.2043,0.2015,0.1965,0.203,0.2093,0.2016,0.2099,0.2097,0.2095,0,0.1726,0.1741,0.1751,0.1756,0.1782,0.1798,0.1819,0.1862,0.1888,0.1961,0.2002,0.2052,0.2087,0.2134,0.216,0.2119,0.2277,0.2213,0.2221,0.222,0.2162,0.215,0.2178,0.23,0.23,0.23,0.2299,0,0.1715,0.1721,0.1746,0.1749,0.1771,0.1796,0.1832,0.187,0.1934,0.1987,0.2034,0.2093,0.2139,0.2218,0.2232,0.2298,0.234,0.2269,0.227,0.2168,0.2156,0.2106,0.2071,0.2306,0.2305,0.2304,0.2302,0,0.1687,0.1705,0.1714,0.1747,0.1758,0.1773,0.1822,0.1858,0.1932,0.2013,0.2044,0.2153,0.2264,0.2317,0.2411,0.239,0.2376,0.2453,0.2347,0.2331,0.2224,0.2194,0.2189,0.2119,0.2503,0.2503,0.2503,0,0.1669,0.1671,0.1701,0.1707,0.1721,0.1747,0.177,0.184,0.189,0.2044,0.2092,0.223,0.2311,0.2453,0.2456,0.2519,0.2414,0.245,0.2325,0.2242,0.2211,0.2105,0.2038,0.2279,0.2278,0.2276,0.2275,0,0.1633,0.1647,0.1657,0.1674,0.1695,0.1718,0.1768,0.18,0.1911,0.1988,0.2115,0.2195,0.2348,0.2362,0.2445,0.2454,0.2309,0.2423,0.2361,0.2074,0.194,0.1864,0.216,0.2263,0.2265,0.2265,0.2266,0.2267,0.16,0.1602,0.1621,0.1632,0.1658,0.1688,0.1685,0.1757,0.1822,0.192,0.2052,0.2123,0.2224,0.2314,0.232,0.2254,0.224,0.2162,0.2154,0.2071,0.1926,0.2212,0.2281,0.2282,0.2283,0.2284,0.2285,0,0.1549,0.1562,0.1576,0.1587,0.1594,0.1631,0.1679,0.1668,0.1708,0.1817,0.1891,0.1963,0.2004,0.2068,0.2072,0.1986,0.188,0.1933,0.1757,0.1719,0.2007,0.1914,0.1875,0.1875,0.1875,0.1875,0.1875,0.1875,0.1522,0.1518,0.1529,0.1518,0.1527,0.1508,0.1516,0.1519,0.1561,0.1585,0.161,0.1681,0.1828,0.1889,0.1825,0.1779,0.1619,0.1557,0.1557,0.175,0.1769,0.1787,0.169,0.1605,0.1605,0.1167,0.1164,0.1161]},{"header":{"parameterUnit":"m.s-1","parameterCategory":2,"la1":30.2991,"la2":30.254,"lo1":-89.0895,"lo2":-89.0444,"dy":0.0017,"dx":0.0017,"nx":28,"ny":28,"refTime":"2025-04-23T21:00:00:Z","depth":"0","parameterNumber":3,"parameterNumberName":"V-component_of_CURRENTS"},"data":[0,0,0,0,0,0,0,0,0,0,0,0,0,0,0,0,0,0,0,0,0,0,0,0,0,0,0,0,0,0,0,0,0,0,0,0,0,0,0,0,0,0,0,0,0,0,0,0,0,0,0,0,0,0,0,0,0,0,-0.001,-0.0011,0,-0.0084,-0.0085,-0.0085,-0.0126,-0.0126,-0.0126,-0.0126,-0.0221,-0.0224,-0.0226,0,0,0,0,0,0,0,0,0,0,0,0,0,0.002,0.002,-0.001,-0.0011,-0.0012,-0.0083,-0.0085,-0.0086,-0.0126,-0.0126,-0.0126,-0.0126,-0.0221,-0.0224,-0.0227,0,0,0,0,0,0,0,0,0,0,0,0,0,-0.0018,0.002,-0.001,-0.0039,-0.0043,-0.0083,-0.0085,-0.0086,-0.0126,-0.0126,-0.0126,-0.0126,-0.022,-0.0223,-0.0227,-0.0251,0,0,-0.0239,-0.024,0,0,0,0,0,0,0,0,-0.0016,-0.002,-0.0034,-0.0037,-0.0041,-0.0095,-0.0109,-0.0142,-0.0126,-0.0096,-0.0126,-0.0126,-0.018,-0.0187,-0.0203,-0.0255,-0.0259,-0.0239,-0.0241,-0.0243,-0.0244,0,0,0,0,0,0,0,-0.0013,-0.0017,-0.004,-0.0035,-0.0039,-0.0075,-0.008,-0.0116,-0.0139,-0.0099,-0.0101,-0.0107,-0.0182,-0.0199,-0.0205,-0.0261,-0.0239,-0.0242,-0.0245,-0.0246,-0.0347,-0.0348,0,0,0,0,0,0,0.0002,-0.0014,-0.0038,-0.0043,-0.0027,-0.0075,-0.0081,-0.0079,-0.0138,-0.0146,-0.0107,-0.0109,-0.0192,-0.0201,-0.0209,-0.0248,-0.0243,-0.0246,-0.0249,-0.0347,-0.0348,-0.0348,0,0,0,0,0,0,0.0004,0.0001,-0.0035,-0.003,-0.0037,-0.0075,-0.0073,-0.008,-0.0098,-0.0144,-0.0153,-0.0117,-0.0193,-0.0203,-0.0238,-0.0252,-0.0248,-0.0252,-0.0347,-0.0347,-0.0348,-0.0323,0,0,0,0,0,0,0.0005,0.0002,0.0006,-0.0028,-0.0036,-0.006,-0.0073,-0.0081,-0.0101,-0.0104,-0.0156,-0.0165,-0.0193,-0.0232,-0.0242,-0.0257,-0.0255,-0.0346,-0.0347,-0.0348,-0.0323,-0.0322,-0.0322,0,0,0,0,0,0.0006,0.0011,0.0007,0.0004,-0.0028,-0.006,-0.0068,-0.0097,-0.0101,-0.0112,-0.0141,-0.0163,-0.0244,-0.0235,-0.0247,-0.0264,-0.0346,-0.0347,-0.0348,-0.0323,-0.0322,-0.0322,0,0,0,0,0,0,0.0028,0.0006,0.0001,0.0001,-0.0026,-0.0066,-0.0078,-0.0095,-0.0127,-0.0127,-0.0168,-0.0179,-0.0215,-0.0241,-0.023,-0.0295,-0.0299,-0.0302,-0.0277,-0.0277,-0.0276,-0.0252,-0.0258,0,0,0,0,0,0.0036,0.0033,0.0005,0.0004,-0.0007,-0.0041,-0.0057,-0.0074,-0.0106,-0.012,-0.0153,-0.019,-0.0228,-0.0252,-0.0286,-0.0322,-0.0318,-0.034,-0.034,-0.0339,-0.0327,-0.0333,-0.0332,-0.0351,-0.0351,-0.0351,0,0,0.0044,0.0032,0.003,0.0008,-0.0014,-0.0031,-0.0051,-0.0072,-0.009,-0.0125,-0.0157,-0.0188,-0.0236,-0.0274,-0.0293,-0.0298,-0.033,-0.034,-0.0339,-0.0328,-0.0334,-0.0332,-0.033,-0.0352,-0.0351,-0.0351,0,0,0.0055,0.0049,0.0048,0.0026,-0.0002,-0.0023,-0.0027,-0.0063,-0.0084,-0.0116,-0.0145,-0.0178,-0.0237,-0.0272,-0.0299,-0.0316,-0.0323,-0.0332,-0.0317,-0.0323,-0.0321,-0.032,-0.03,-0.0297,-0.0337,-0.0337,-0.0337,0,0.0066,0.0062,0.004,0.0029,0.0016,-0.0016,-0.0024,-0.0055,-0.0097,-0.0105,-0.0121,-0.0189,-0.0237,-0.0276,-0.029,-0.0315,-0.0306,-0.0316,-0.0321,-0.0319,-0.0317,-0.0298,-0.0295,-0.0336,-0.0336,-0.0336,-0.0336,0,0.007,0.0065,0.006,0.004,0.0023,0.0009,-0.0027,-0.0044,-0.0066,-0.0088,-0.0122,-0.0179,-0.0213,-0.0245,-0.0281,-0.03,-0.0292,-0.0314,-0.0317,-0.0314,-0.0294,-0.0291,-0.0334,-0.0334,-0.0335,-0.0335,0,0,0.0103,0.0071,0.007,0.0067,0.003,0.0021,-0.0005,-0.0029,-0.0022,-0.0076,-0.0069,-0.016,-0.0172,-0.0202,-0.0247,-0.0268,-0.0264,-0.0287,-0.0288,-0.0257,-0.0251,-0.0234,-0.0229,-0.0283,-0.0283,-0.0283,-0.0236,0,0.0114,0.0105,0.0083,0.0077,0.0072,0.004,0.0026,0.0003,-0.0014,-0.0014,-0.0074,-0.0091,-0.0163,-0.0171,-0.0206,-0.0237,-0.0256,-0.0273,-0.0268,-0.0267,-0.0244,-0.0225,-0.0215,-0.0171,-0.0233,-0.0232,-0.0232,0,0.0126,0.012,0.0117,0.0109,0.0106,0.0098,0.0099,0.0082,0.0066,0.0058,0.0034,0.0002,-0.0042,-0.0099,-0.0153,-0.0155,-0.0204,-0.0236,-0.0235,-0.0224,-0.0245,-0.0189,-0.0163,-0.0257,-0.0227,-0.0228,-0.0228,0,0.0166,0.0148,0.0152,0.0143,0.0125,0.0126,0.0119,0.011,0.012,0.0114,0.0145,0.0084,0.008,0.0006,-0.0074,-0.0108,-0.0108,-0.0163,-0.0192,-0.0191,-0.0182,-0.018,-0.0238,-0.0204,-0.0204,-0.0204,-0.0204,0,0.0187,0.0193,0.0173,0.0175,0.0195,0.0169,0.0199,0.0189,0.0206,0.0258,0.019,0.023,0.0105,0.0085,-0.0014,-0.0069,-0.0062,-0.0172,-0.0177,-0.0173,-0.0171,-0.0253,-0.0314,-0.0202,-0.0203,-0.0203,-0.0203,0,0.0227,0.021,0.0219,0.021,0.0213,0.0229,0.0249,0.0282,0.029,0.0365,0.0371,0.0352,0.0334,0.0227,0.0136,0.0031,-0.0085,-0.0071,-0.0042,-0.0046,-0.0181,-0.024,-0.028,-0.0319,-0.0093,-0.0092,-0.0092,0,0.0244,0.0251,0.0254,0.0272,0.0269,0.0289,0.0315,0.0319,0.0375,0.0454,0.0512,0.051,0.0542,0.0428,0.024,0.0103,-0.0024,0.0002,-0.0086,-0.0169,-0.024,-0.0287,-0.0321,-0.0058,-0.0058,-0.0057,-0.0056,0,0.028,0.0281,0.029,0.0329,0.0357,0.0397,0.0444,0.0503,0.0549,0.0633,0.0753,0.0786,0.0677,0.0544,0.0334,0.0215,-0.0056,0.0011,-0.009,-0.0222,-0.0261,-0.0306,-0.0093,-0.005,-0.0051,-0.0051,-0.0052,-0.0052,0.0311,0.0329,0.0348,0.0389,0.0433,0.0517,0.0577,0.0662,0.0777,0.092,0.0932,0.1002,0.0783,0.0501,0.0335,0.0016,-0.0011,-0.0107,-0.0169,-0.0206,-0.026,-0.0017,0.0021,0.0021,0.0021,0.0021,0.0021,0,0.0348,0.0371,0.0411,0.0469,0.0542,0.0554,0.0676,0.0762,0.093,0.1034,0.1138,0.1063,0.0803,0.0504,0.0081,-0.0137,-0.0235,-0.0257,-0.0341,-0.0368,-0.016,-0.0177,-0.0161,-0.0161,-0.0161,-0.016,-0.016,-0.016,0.0369,0.0413,0.0434,0.0554,0.0611,0.0729,0.0812,0.095,0.1048,0.1182,0.1206,0.1204,0.0987,0.0271,-0.0211,-0.032,-0.0489,-0.0511,-0.0593,-0.0481,-0.0473,-0.0466,-0.0497,-0.0548,-0.0548,-0.0777,-0.0779,-0.0781]}],[{"header":{"parameterUnit":"m.s-1","parameterCategory":2,"la1":30.2991,"la2":30.254,"lo1":-89.0895,"lo2":-89.0444,"dy":0.0017,"dx":0.0017,"nx":28,"ny":28,"refTime":"2025-04-23T21:00:00:Z","depth":"2","parameterNumber":2,"parameterNumberName":"U-component_of_CURRENTS"},"data":[0,0,0,0,0,0,0,0,0,0,0,0,0,0,0,0,0,0,0,0,0,0,0,0,0,0,0,0,0,0,0,0,0,0,0,0,0,0,0,0,0,0,0,0,0,0,0,0,0,0,0,0,0,0,0,0,0,0,0.1942,0.1942,0,0.1911,0.191,0.1909,0.1898,0.1898,0.1898,0.1899,0.1853,0.1851,0.185,0,0,0,0,0,0,0,0,0,0,0,0,0,0.1963,0.1962,0.1942,0.1942,0.1942,0.1911,0.191,0.1909,0.1898,0.1898,0.1899,0.1899,0.1854,0.1852,0.185,0,0,0,0,0,0,0,0,0,0,0,0,0,0.1942,0.1962,0.1942,0.1935,0.1935,0.1911,0.191,0.1909,0.1897,0.1898,0.1899,0.1899,0.1854,0.1852,0.1849,0.1822,0,0,0.1842,0.1841,0,0,0,0,0,0,0,0,0.1943,0.194,0.1936,0.1936,0.1935,0.1912,0.1901,0.188,0.1897,0.1908,0.1899,0.19,0.1873,0.1869,0.1857,0.1819,0.1818,0.1842,0.184,0.1839,0.1839,0,0,0,0,0,0,0,0.1944,0.1942,0.1926,0.1936,0.1935,0.1924,0.1921,0.1896,0.1884,0.1907,0.1907,0.1909,0.1872,0.1859,0.1856,0.1817,0.1842,0.184,0.1838,0.1837,0.1783,0.1783,0,0,0,0,0,0,0.1956,0.1943,0.1927,0.1926,0.1945,0.1923,0.192,0.1916,0.1885,0.1882,0.1908,0.1908,0.1863,0.1859,0.1854,0.1842,0.1839,0.1837,0.1836,0.1783,0.1783,0.1783,0,0,0,0,0,0,0.1957,0.1955,0.1929,0.1937,0.1933,0.1923,0.1917,0.1915,0.1906,0.1887,0.1883,0.1903,0.1864,0.1858,0.1836,0.1839,0.1836,0.1834,0.1783,0.1783,0.1783,0.1803,0,0,0,0,0,0,0.1957,0.1955,0.1953,0.1938,0.1933,0.1918,0.1917,0.1914,0.1908,0.1908,0.1881,0.1877,0.1864,0.184,0.1834,0.1836,0.1832,0.1783,0.1783,0.1783,0.1802,0.1803,0.1804,0,0,0,0,0,0.1958,0.1947,0.1953,0.1951,0.1932,0.1918,0.1914,0.1907,0.1907,0.1901,0.1885,0.1878,0.1836,0.1837,0.183,0.1832,0.1783,0.1783,0.1783,0.1801,0.1803,0.1804,0,0,0,0,0,0,0.193,0.1945,0.1951,0.1938,0.1935,0.1918,0.1909,0.1907,0.1888,0.1888,0.187,0.1865,0.185,0.1836,0.1838,0.1818,0.1811,0.181,0.1828,0.1829,0.183,0.1864,0.183,0,0,0,0,0,0.1931,0.1944,0.1941,0.1932,0.1931,0.1922,0.1915,0.1912,0.1897,0.1889,0.1873,0.1857,0.1843,0.1832,0.1815,0.1796,0.1828,0.1796,0.1797,0.1798,0.1821,0.1869,0.1878,0.1783,0.1783,0.1783,0,0,0.1921,0.1928,0.1936,0.1931,0.1925,0.1921,0.1918,0.1908,0.1908,0.1886,0.1873,0.1858,0.1839,0.1824,0.1816,0.1812,0.1841,0.1798,0.1799,0.1822,0.187,0.188,0.1888,0.1784,0.1784,0.1784,0,0,0.1907,0.191,0.192,0.192,0.1921,0.1917,0.1917,0.1905,0.1902,0.1887,0.1879,0.1869,0.1836,0.1832,0.1824,0.182,0.1847,0.1812,0.1843,0.1888,0.1898,0.1906,0.1963,0.1976,0.1811,0.1811,0.1811,0,0.1889,0.1903,0.1915,0.1917,0.1919,0.1918,0.1916,0.191,0.1894,0.1901,0.1887,0.1871,0.1844,0.185,0.1848,0.1825,0.1866,0.1837,0.1893,0.1902,0.191,0.1967,0.1981,0.1812,0.1812,0.1812,0.1812,0,0.1894,0.1896,0.1895,0.1911,0.191,0.1907,0.1909,0.191,0.1907,0.191,0.1916,0.189,0.1892,0.1873,0.1856,0.1897,0.1913,0.1891,0.1895,0.1921,0.1978,0.1993,0.1814,0.1813,0.1813,0.1813,0,0,0.1871,0.1897,0.1897,0.1904,0.191,0.1908,0.1915,0.1927,0.195,0.1936,0.1969,0.1935,0.1945,0.1938,0.1922,0.1951,0.2028,0.1951,0.1953,0.2019,0.2155,0.2051,0.2057,0.2025,0.2028,0.2029,0.2174,0,0.1869,0.1877,0.1895,0.1898,0.1897,0.1912,0.1922,0.1937,0.1953,0.1984,0.1984,0.2,0.1963,0.1973,0.1999,0.2024,0.2068,0.1992,0.2111,0.2116,0.2028,0.2071,0.19,0.2005,0.2189,0.2191,0.2193,0,0.1869,0.1877,0.1881,0.1902,0.1906,0.1911,0.1949,0.1962,0.201,0.2029,0.2062,0.2074,0.2116,0.2078,0.2164,0.2124,0.2152,0.2168,0.2173,0.2084,0.2038,0.2006,0.2025,0.2218,0.2216,0.2214,0.2213,0,0.1852,0.1866,0.1873,0.1878,0.19,0.1914,0.1932,0.1974,0.1997,0.2072,0.211,0.2162,0.2197,0.2245,0.2251,0.2236,0.2348,0.2327,0.2267,0.2261,0.2143,0.2121,0.2407,0.2406,0.2406,0.2406,0.2405,0,0.184,0.1842,0.1867,0.1869,0.1885,0.1908,0.1939,0.1975,0.2036,0.208,0.2136,0.2183,0.2244,0.2295,0.2308,0.2324,0.2395,0.2297,0.2294,0.2141,0.2118,0.2316,0.2304,0.2411,0.241,0.2409,0.2408,0,0.1807,0.1826,0.1832,0.1863,0.1871,0.1883,0.1926,0.1957,0.2027,0.2095,0.2125,0.2227,0.2296,0.2329,0.241,0.2385,0.2411,0.2394,0.2209,0.2179,0.2298,0.2285,0.2393,0.2391,0.2388,0.2387,0.2385,0,0.1785,0.1786,0.1817,0.1822,0.1833,0.1854,0.1873,0.1938,0.1981,0.2107,0.2146,0.2241,0.2268,0.234,0.2328,0.2347,0.2376,0.2192,0.2112,0.2312,0.2299,0.2288,0.2278,0.1984,0.1979,0.1976,0.1973,0,0.1741,0.1759,0.1766,0.1783,0.18,0.1819,0.186,0.1883,0.1977,0.2019,0.2091,0.2122,0.2208,0.2136,0.2149,0.2135,0.2172,0.2114,0.2396,0.1983,0.1929,0.1914,0.1918,0.1939,0.1942,0.1945,0.1947,0.1948,0.1703,0.1698,0.1719,0.1724,0.1755,0.1777,0.1757,0.1802,0.1823,0.1863,0.1967,0.1945,0.1994,0.1916,0.1866,0.1844,0.2,0.1919,0.1931,0.1946,0.1842,0.1784,0.175,0.1752,0.1754,0.1756,0.1757,0,0.1635,0.1647,0.1655,0.1656,0.1666,0.1715,0.1738,0.1688,0.1654,0.1716,0.1718,0.1594,0.1549,0.1591,0.1516,0.1528,0.1521,0.146,0.1437,0.1472,0.1503,0.1375,0.116,0.1158,0.1156,0.1154,0,0,0.1599,0.158,0.1577,0.1556,0.1575,0.1535,0.1529,0.1466,0.1463,0.1392,0.1364,0.1467,0.1541,0.132,0.1308,0.1216,0.1329,0.117,0.1655,0.1663,0.1691,0.1781,0.1624,0,0,0,0,0]},{"header":{"parameterUnit":"m.s-1","parameterCategory":2,"la1":30.2991,"la2":30.254,"lo1":-89.0895,"lo2":-89.0444,"dy":0.0017,"dx":0.0017,"nx":28,"ny":28,"refTime":"2025-04-23T21:00:00:Z","depth":"2","parameterNumber":3,"parameterNumberName":"V-component_of_CURRENTS"},"data":[0,0,0,0,0,0,0,0,0,0,0,0,0,0,0,0,0,0,0,0,0,0,0,0,0,0,0,0,0,0,0,0,0,0,0,0,0,0,0,0,0,0,0,0,0,0,0,0,0,0,0,0,0,0,0,0,0,0,-0.0073,-0.0073,0,-0.0145,-0.0146,-0.0147,-0.0187,-0.0187,-0.0187,-0.0187,-0.0281,-0.0283,-0.0286,0,0,0,0,0,0,0,0,0,0,0,0,0,-0.0046,-0.0046,-0.0073,-0.0073,-0.0074,-0.0145,-0.0146,-0.0147,-0.0187,-0.0187,-0.0187,-0.0187,-0.028,-0.0283,-0.0286,0,0,0,0,0,0,0,0,0,0,0,0,0,-0.0083,-0.0046,-0.0073,-0.0102,-0.0105,-0.0144,-0.0146,-0.0147,-0.0187,-0.0187,-0.0187,-0.0187,-0.0279,-0.0283,-0.0286,-0.031,0,0,-0.0298,-0.0299,0,0,0,0,0,0,0,0,-0.0081,-0.0084,-0.0097,-0.01,-0.0103,-0.0156,-0.0171,-0.0202,-0.0187,-0.0157,-0.0187,-0.0187,-0.024,-0.0247,-0.0262,-0.0314,-0.0318,-0.0298,-0.03,-0.0302,-0.0303,0,0,0,0,0,0,0,-0.0078,-0.0082,-0.0103,-0.0097,-0.0101,-0.0137,-0.0142,-0.0177,-0.0199,-0.016,-0.0163,-0.0168,-0.0242,-0.0259,-0.0265,-0.032,-0.0298,-0.0301,-0.0304,-0.0305,-0.04,-0.04,0,0,0,0,0,0,-0.0062,-0.0079,-0.01,-0.0105,-0.009,-0.0137,-0.0143,-0.014,-0.0199,-0.0207,-0.0168,-0.017,-0.0252,-0.026,-0.0268,-0.0301,-0.0302,-0.0306,-0.0308,-0.04,-0.04,-0.04,0,0,0,0,0,0,-0.0061,-0.0063,-0.0097,-0.0093,-0.01,-0.0137,-0.0134,-0.0141,-0.0158,-0.0204,-0.0213,-0.0177,-0.0252,-0.0263,-0.0296,-0.0305,-0.0307,-0.0311,-0.0399,-0.04,-0.04,-0.0366,0,0,0,0,0,0,-0.006,-0.0062,-0.0058,-0.0091,-0.0099,-0.0121,-0.0134,-0.0143,-0.0161,-0.0164,-0.0216,-0.0224,-0.0253,-0.029,-0.0299,-0.031,-0.0314,-0.0399,-0.04,-0.04,-0.0367,-0.0365,-0.0364,0,0,0,0,0,-0.0059,-0.0054,-0.0057,-0.006,-0.0091,-0.0121,-0.0129,-0.0157,-0.0161,-0.0171,-0.02,-0.0223,-0.03,-0.0293,-0.0304,-0.0316,-0.0399,-0.0399,-0.04,-0.0368,-0.0366,-0.0364,0,0,0,0,0,0,-0.0036,-0.0058,-0.0063,-0.0062,-0.0088,-0.0127,-0.0138,-0.0154,-0.0185,-0.0185,-0.0226,-0.0237,-0.0269,-0.0296,-0.0288,-0.0345,-0.0354,-0.0356,-0.0325,-0.0324,-0.0322,-0.0301,-0.0317,0,0,0,0,0,-0.0027,-0.0032,-0.0058,-0.0059,-0.0069,-0.0102,-0.0117,-0.0134,-0.0164,-0.0178,-0.0211,-0.0246,-0.0281,-0.0303,-0.0336,-0.0369,-0.037,-0.0384,-0.0383,-0.0381,-0.0371,-0.038,-0.0378,-0.0402,-0.0402,-0.0402,0,0,-0.002,-0.0031,-0.0035,-0.0055,-0.0076,-0.0091,-0.0112,-0.0132,-0.0147,-0.0184,-0.0211,-0.0241,-0.0287,-0.0321,-0.0338,-0.0345,-0.0373,-0.0382,-0.038,-0.0371,-0.038,-0.0378,-0.0375,-0.0403,-0.0402,-0.0402,0,0,-0.0009,-0.0014,-0.0017,-0.0037,-0.0063,-0.0083,-0.0086,-0.012,-0.0139,-0.0168,-0.0196,-0.0225,-0.0282,-0.0313,-0.0338,-0.0348,-0.0361,-0.0365,-0.0346,-0.0354,-0.0352,-0.035,-0.0335,-0.0332,-0.0368,-0.0368,-0.0368,0,0.0002,-0.0001,-0.0024,-0.0033,-0.0044,-0.0075,-0.008,-0.0109,-0.0149,-0.0154,-0.0172,-0.0233,-0.0278,-0.031,-0.0321,-0.0345,-0.0341,-0.0348,-0.0351,-0.0349,-0.0347,-0.0333,-0.033,-0.0367,-0.0367,-0.0367,-0.0367,0,0.0006,0.0003,-0.0001,-0.0019,-0.0034,-0.0046,-0.0078,-0.0093,-0.0113,-0.0133,-0.0161,-0.0214,-0.0246,-0.0274,-0.0307,-0.0323,-0.0319,-0.0342,-0.035,-0.0342,-0.0328,-0.0325,-0.0364,-0.0365,-0.0365,-0.0366,0,0,0.0035,0.0007,0.0007,0.0006,-0.0026,-0.0034,-0.0054,-0.0073,-0.0064,-0.0114,-0.0105,-0.0185,-0.0198,-0.0226,-0.0268,-0.0288,-0.0284,-0.0311,-0.0312,-0.0286,-0.028,-0.0285,-0.0283,-0.0305,-0.0305,-0.0305,-0.0269,0,0.0046,0.0042,0.0022,0.002,0.0018,-0.001,-0.0019,-0.0038,-0.0052,-0.0051,-0.0105,-0.012,-0.0186,-0.0194,-0.0226,-0.0259,-0.0278,-0.029,-0.03,-0.03,-0.0298,-0.0281,-0.0264,-0.0231,-0.0267,-0.0266,-0.0266,0,0.0058,0.0055,0.0057,0.0053,0.0052,0.0046,0.0053,0.0039,0.0027,0.002,-0.0001,-0.0032,-0.007,-0.0126,-0.0179,-0.018,-0.023,-0.0263,-0.0263,-0.0276,-0.0301,-0.0249,-0.0225,-0.0262,-0.0262,-0.0262,-0.0263,0,0.0096,0.0084,0.0091,0.0084,0.0071,0.0075,0.0071,0.0067,0.008,0.0073,0.0102,0.0047,0.0041,-0.0031,-0.0115,-0.0142,-0.0156,-0.02,-0.025,-0.025,-0.0241,-0.0241,-0.0242,-0.0242,-0.0243,-0.0243,-0.0243,0,0.0118,0.0126,0.0111,0.0114,0.0137,0.0115,0.0148,0.0141,0.0159,0.0206,0.0144,0.018,0.0063,0.0035,-0.0063,-0.0131,-0.0117,-0.0232,-0.0242,-0.0229,-0.0228,-0.0267,-0.0271,-0.0241,-0.0242,-0.0242,-0.0242,0,0.0157,0.0143,0.0155,0.015,0.0154,0.0171,0.0195,0.0228,0.0237,0.0304,0.0308,0.0292,0.0255,0.0145,0.005,-0.0045,-0.0125,-0.0163,-0.0128,-0.0136,-0.0224,-0.0226,-0.0201,-0.0201,-0.0201,-0.0201,-0.0201,0,0.0173,0.0182,0.0189,0.0208,0.0206,0.0228,0.0256,0.0262,0.0317,0.0384,0.0437,0.0416,0.0412,0.0281,0.0111,-0.0037,-0.009,-0.0123,-0.0192,-0.0208,-0.022,-0.0222,-0.0224,-0.0158,-0.0157,-0.0157,-0.0157,0,0.0209,0.0211,0.0223,0.0261,0.0289,0.033,0.0378,0.0432,0.0473,0.0531,0.0615,0.0613,0.0492,0.035,0.014,0.0029,-0.0101,-0.0122,-0.0132,-0.018,-0.0167,-0.0179,-0.0182,-0.0154,-0.0154,-0.0154,-0.0154,-0.0154,0.0238,0.0256,0.0276,0.0314,0.0361,0.0439,0.0485,0.0555,0.064,0.0732,0.0737,0.0733,0.0575,0.0302,0.0129,-0.0065,-0.0076,-0.0158,-0.0159,-0.016,-0.0171,-0.016,-0.0145,-0.0145,-0.0145,-0.0146,-0.0146,0,0.0269,0.0292,0.0331,0.0383,0.0451,0.0468,0.0575,0.0624,0.073,0.0799,0.0839,0.0695,0.0538,0.0346,0.0066,-0.0103,-0.0131,-0.0161,-0.0158,-0.0159,-0.0161,-0.0173,-0.0146,-0.0147,-0.0147,-0.0148,0,0,0.0287,0.0326,0.0344,0.0449,0.0501,0.0592,0.0659,0.073,0.079,0.0845,0.0844,0.0813,0.0596,0.0395,0.0172,0.0015,-0.004,-0.0023,-0.0004,0.0025,0.0025,-0.014,-0.0157,0,0,0,0,0]}],[{"header":{"parameterUnit":"m.s-1","parameterCategory":2,"la1":30.2991,"la2":30.254,"lo1":-89.0895,"lo2":-89.0444,"dy":0.0017,"dx":0.0017,"nx":28,"ny":28,"refTime":"2025-04-23T21:00:00:Z","depth":"4","parameterNumber":2,"parameterNumberName":"U-component_of_CURRENTS"},"data":[0,0,0,0,0,0,0,0,0,0,0,0,0,0,0,0,0,0,0,0,0,0,0,0,0,0,0,0,0,0,0,0,0,0,0,0,0,0,0,0,0,0,0,0,0,0,0,0,0,0,0,0,0,0,0,0,0,0,0.0778,0.0779,0,0.076,0.0759,0.0758,0.0811,0.0814,0.0817,0.082,0.0956,0.0957,0.0958,0,0,0,0,0,0,0,0,0,0,0,0,0,0.0741,0.0741,0.0778,0.0779,0.078,0.076,0.0759,0.0757,0.0811,0.0814,0.0818,0.0821,0.0956,0.0957,0.0958,0,0,0,0,0,0,0,0,0,0,0,0,0,0.0731,0.0741,0.0778,0.0814,0.0818,0.0761,0.0759,0.0757,0.081,0.0814,0.0819,0.0823,0.0955,0.0957,0.0958,0.0882,0,0,0.0963,0.0963,0,0,0,0,0,0,0,0,0.0732,0.0731,0.0808,0.0812,0.0816,0.0804,0.0797,0.0811,0.0809,0.0799,0.082,0.0825,0.0925,0.0929,0.0895,0.0888,0.0894,0.0963,0.0964,0.0964,0.0965,0,0,0,0,0,0,0,0.0733,0.0732,0.0758,0.0809,0.0814,0.0792,0.0795,0.0797,0.0831,0.08,0.0808,0.0825,0.0927,0.0893,0.09,0.0896,0.0963,0.0964,0.0965,0.0965,0.1056,0.1058,0,0,0,0,0,0,0.0763,0.0733,0.0759,0.0759,0.0799,0.0791,0.0793,0.0793,0.0828,0.084,0.0821,0.0828,0.0889,0.0898,0.0905,0.1012,0.0964,0.0966,0.0966,0.1055,0.1056,0.1058,0,0,0,0,0,0,0.0761,0.0764,0.076,0.0757,0.0757,0.0789,0.0787,0.079,0.0792,0.0844,0.0858,0.0827,0.0892,0.0903,0.0984,0.1012,0.0966,0.0968,0.1053,0.1055,0.1057,0.1103,0,0,0,0,0,0,0.076,0.0763,0.0759,0.0758,0.0759,0.0767,0.0784,0.0787,0.0801,0.081,0.0852,0.0867,0.0897,0.0982,0.0985,0.1013,0.0969,0.1051,0.1054,0.1057,0.1099,0.1106,0.1112,0,0,0,0,0,0.0758,0.0758,0.0758,0.0762,0.0756,0.0769,0.0765,0.0793,0.0798,0.0805,0.0864,0.0867,0.1003,0.0984,0.0988,0.1017,0.1049,0.1053,0.1056,0.1096,0.1105,0.1112,0,0,0,0,0,0,0.0757,0.0764,0.0765,0.0771,0.0786,0.0785,0.0793,0.0793,0.0825,0.0849,0.0884,0.0904,0.0972,0.0988,0.0967,0.1052,0.1025,0.1029,0.1054,0.1062,0.1069,0.106,0.097,0,0,0,0,0,0.0748,0.0746,0.0758,0.0768,0.0773,0.0772,0.0775,0.0795,0.083,0.0845,0.0895,0.0943,0.0972,0.102,0.1043,0.1092,0.1092,0.1114,0.112,0.1126,0.1123,0.1136,0.1143,0.1069,0.1069,0.1069,0,0,0.0759,0.076,0.0763,0.0767,0.0771,0.0776,0.0783,0.0806,0.0822,0.0856,0.0918,0.0955,0.0984,0.1049,0.1082,0.1084,0.1155,0.113,0.1135,0.1128,0.114,0.1147,0.1153,0.1072,0.1071,0.1071,0,0,0.0769,0.0772,0.0765,0.0771,0.0792,0.0795,0.0807,0.083,0.0856,0.0908,0.0938,0.1009,0.1061,0.1105,0.1121,0.1171,0.1168,0.1182,0.1233,0.1247,0.1252,0.1257,0.1295,0.1303,0.121,0.121,0.121,0,0.0778,0.0766,0.0771,0.0767,0.0786,0.0806,0.0816,0.0823,0.0884,0.0921,0.0953,0.1041,0.1079,0.1137,0.1179,0.1183,0.12,0.1201,0.1253,0.1258,0.1262,0.13,0.1308,0.1213,0.1212,0.1212,0.1212,0,0.0763,0.0769,0.0775,0.0772,0.0794,0.0812,0.0842,0.0876,0.0918,0.095,0.1034,0.1093,0.1159,0.118,0.1202,0.1257,0.1263,0.1238,0.1229,0.1272,0.131,0.1317,0.1216,0.1215,0.1215,0.1214,0,0,0.0752,0.0757,0.0763,0.0772,0.08,0.0821,0.0857,0.0902,0.0934,0.1014,0.1074,0.1149,0.1202,0.1225,0.1263,0.1299,0.1363,0.1303,0.1302,0.1334,0.142,0.1339,0.1339,0.135,0.1351,0.1351,0.1446,0,0.074,0.0732,0.0747,0.0778,0.0785,0.0828,0.0867,0.0922,0.0976,0.1046,0.1115,0.119,0.1208,0.1269,0.1302,0.1343,0.1381,0.1341,0.138,0.1381,0.1296,0.1343,0.1354,0.1451,0.1453,0.1454,0.1455,0,0.0715,0.0716,0.0729,0.0788,0.0799,0.0829,0.0905,0.0942,0.1029,0.1089,0.1172,0.1223,0.1321,0.1311,0.1401,0.1381,0.1406,0.1427,0.143,0.1336,0.1312,0.1393,0.1468,0.1467,0.1466,0.1465,0.1464,0,0.0693,0.0718,0.0732,0.0744,0.08,0.0839,0.0886,0.0968,0.1021,0.1127,0.1191,0.1283,0.1362,0.1392,0.1462,0.1441,0.1537,0.1504,0.1449,0.1446,0.1469,0.1463,0.1535,0.1534,0.1534,0.1534,0.1534,0,0.0669,0.0692,0.0726,0.073,0.0781,0.0841,0.0913,0.0967,0.1068,0.1143,0.1224,0.1293,0.1385,0.1452,0.1479,0.1502,0.1554,0.1462,0.1458,0.1492,0.1487,0.1477,0.1469,0.1538,0.1537,0.1536,0.1535,0,0.0655,0.0666,0.0688,0.0741,0.0769,0.0814,0.0927,0.0965,0.1077,0.1169,0.122,0.134,0.1431,0.1496,0.1572,0.1532,0.1555,0.1541,0.1612,0.161,0.1452,0.1446,0.1484,0.1482,0.148,0.1479,0.1477,0,0.0637,0.0641,0.0686,0.0712,0.0743,0.0818,0.0858,0.0964,0.1014,0.1186,0.1221,0.1354,0.1422,0.1474,0.1536,0.1579,0.155,0.1553,0.1461,0.1452,0.1445,0.1442,0.1438,0.1474,0.1474,0.1473,0.1473,0,0.0612,0.0633,0.065,0.0685,0.0723,0.0774,0.085,0.0885,0.1011,0.1112,0.1213,0.1276,0.1369,0.1431,0.1482,0.1498,0.1544,0.1533,0.1535,0.1449,0.144,0.1434,0.1433,0.1466,0.1467,0.1468,0.1468,0,0.0601,0.0605,0.062,0.0663,0.0701,0.0727,0.0771,0.084,0.0905,0.1084,0.1117,0.1251,0.1364,0.1391,0.1436,0.1452,0.1416,0.1353,0.1364,0.1372,0.1288,0.1258,0.123,0,0,0,0,0,0.0585,0.0581,0.0602,0.0624,0.0661,0.0688,0.0761,0.0807,0.0914,0.0955,0.1044,0.1129,0.1215,0.128,0.1274,0.137,0.141,0.1355,0.134,0.143,0.1437,0.1346,0,0,0,0,0,0,0.0569,0.0576,0.0578,0.0586,0.0606,0.0626,0.0668,0.0739,0.0777,0.0905,0.0957,0.1058,0.1153,0.1217,0.1256,0.1274,0.1239,0.1437,0.1434,0.1425,0.1432,0.1438,0.1348,0,0,0,0,0]},{"header":{"parameterUnit":"m.s-1","parameterCategory":2,"la1":30.2991,"la2":30.254,"lo1":-89.0895,"lo2":-89.0444,"dy":0.0017,"dx":0.0017,"nx":28,"ny":28,"refTime":"2025-04-23T21:00:00:Z","depth":"4","parameterNumber":3,"parameterNumberName":"V-component_of_CURRENTS"},"data":[0,0,0,0,0,0,0,0,0,0,0,0,0,0,0,0,0,0,0,0,0,0,0,0,0,0,0,0,0,0,0,0,0,0,0,0,0,0,0,0,0,0,0,0,0,0,0,0,0,0,0,0,0,0,0,0,0,0,0.0199,0.0199,0,0.022,0.022,0.0221,0.0236,0.0236,0.0236,0.0236,0.0228,0.0228,0.0228,0,0,0,0,0,0,0,0,0,0,0,0,0,0.0168,0.0169,0.0199,0.0199,0.0199,0.0219,0.022,0.0221,0.0237,0.0236,0.0236,0.0235,0.0228,0.0228,0.0228,0,0,0,0,0,0,0,0,0,0,0,0,0,0.0189,0.0169,0.0199,0.0205,0.0206,0.0219,0.022,0.0221,0.0237,0.0236,0.0236,0.0235,0.0228,0.0228,0.0228,0.0237,0,0,0.0228,0.0228,0,0,0,0,0,0,0,0,0.0188,0.0191,0.0205,0.0205,0.0205,0.0221,0.0206,0.0224,0.0237,0.023,0.0236,0.0235,0.022,0.0221,0.0233,0.0237,0.0237,0.0228,0.0228,0.0228,0.0228,0,0,0,0,0,0,0,0.0186,0.019,0.0212,0.0204,0.0205,0.0205,0.0208,0.021,0.023,0.0231,0.0231,0.0225,0.0221,0.0233,0.0233,0.0237,0.0228,0.0228,0.0228,0.0228,0.0268,0.0269,0,0,0,0,0,0,0.0175,0.0189,0.0211,0.0212,0.019,0.0206,0.0209,0.022,0.0231,0.0231,0.0226,0.0226,0.0233,0.0232,0.0232,0.0259,0.0228,0.0228,0.0228,0.0267,0.0268,0.0269,0,0,0,0,0,0,0.0175,0.0178,0.021,0.0196,0.0199,0.0206,0.0219,0.0221,0.0235,0.0227,0.0227,0.0236,0.0232,0.0232,0.0238,0.0258,0.0228,0.0229,0.0266,0.0267,0.0269,0.0302,0,0,0,0,0,0,0.0174,0.0178,0.0192,0.0196,0.02,0.0222,0.0218,0.0221,0.0229,0.023,0.0236,0.0235,0.0232,0.0238,0.0238,0.0257,0.0229,0.0265,0.0266,0.0268,0.03,0.0304,0.0309,0,0,0,0,0,0.0173,0.018,0.0193,0.0195,0.0216,0.0222,0.0226,0.0231,0.023,0.0242,0.0244,0.0235,0.025,0.0239,0.0239,0.0258,0.0264,0.0266,0.0268,0.0298,0.0304,0.0308,0,0,0,0,0,0,0.0167,0.0182,0.0196,0.0207,0.0219,0.0223,0.0228,0.0234,0.0248,0.0246,0.0243,0.0242,0.0258,0.0253,0.0241,0.0277,0.0258,0.026,0.028,0.0286,0.029,0.0282,0.0229,0,0,0,0,0,0.0175,0.019,0.0202,0.0212,0.0216,0.0227,0.0233,0.0238,0.0242,0.0249,0.0249,0.0255,0.0269,0.0271,0.0279,0.0293,0.0259,0.0308,0.0312,0.0316,0.031,0.0282,0.0282,0.0276,0.0276,0.0276,0,0,0.0172,0.0183,0.0191,0.0213,0.0221,0.0238,0.0231,0.0237,0.0257,0.0244,0.0265,0.0268,0.0276,0.0297,0.0304,0.0293,0.0297,0.0319,0.0322,0.0314,0.0284,0.0284,0.0284,0.0278,0.0278,0.0277,0,0,0.0174,0.0188,0.0206,0.0217,0.0231,0.0241,0.0244,0.0254,0.0266,0.0285,0.0286,0.0298,0.0312,0.0325,0.0334,0.0366,0.0323,0.0371,0.0385,0.0359,0.0358,0.0357,0.0299,0.0293,0.0373,0.0373,0.0373,0,0.0175,0.0203,0.021,0.0229,0.0239,0.0244,0.0265,0.0279,0.0291,0.03,0.0293,0.0316,0.0329,0.0354,0.0374,0.0377,0.0336,0.0364,0.0362,0.0361,0.036,0.03,0.0293,0.0375,0.0374,0.0374,0.0374,0,0.0194,0.0219,0.0222,0.0258,0.0272,0.0283,0.0301,0.0313,0.0322,0.0334,0.0351,0.0359,0.0367,0.0385,0.0393,0.0401,0.0365,0.037,0.0344,0.0362,0.0298,0.029,0.0377,0.0377,0.0376,0.0376,0,0,0.0192,0.0232,0.0236,0.0261,0.0288,0.0299,0.0327,0.0355,0.0366,0.0375,0.0382,0.0421,0.0406,0.0415,0.0419,0.0407,0.0374,0.0386,0.0384,0.0319,0.0279,0.027,0.0259,0.037,0.0369,0.0369,0.0232,0,0.0212,0.0252,0.027,0.031,0.0332,0.0344,0.0368,0.039,0.0401,0.0404,0.0408,0.0418,0.0424,0.0424,0.0412,0.0387,0.0356,0.0408,0.0279,0.0274,0.0257,0.0252,0.0367,0.0225,0.0223,0.0222,0.0221,0,0.023,0.0258,0.03,0.0341,0.0351,0.0375,0.0404,0.0424,0.0431,0.0437,0.0432,0.0422,0.0412,0.0411,0.0345,0.0372,0.0326,0.0298,0.0292,0.0266,0.0251,0.0209,0.0206,0.0207,0.0208,0.0209,0.021,0,0.0229,0.0278,0.0314,0.0327,0.0372,0.0392,0.0413,0.0433,0.0451,0.0447,0.0446,0.0419,0.0403,0.0346,0.0297,0.031,0.0203,0.0213,0.0151,0.0148,0.018,0.0183,0.0153,0.0153,0.0153,0.0154,0.0154,0,0.0241,0.0269,0.0315,0.0334,0.0373,0.0397,0.0434,0.0445,0.0457,0.0473,0.0455,0.0447,0.0388,0.0327,0.0272,0.0178,0.0175,0.014,0.0117,0.0196,0.0202,0.0173,0.0177,0.0148,0.0149,0.0151,0.0151,0,0.0234,0.0265,0.0305,0.0356,0.0375,0.0398,0.0452,0.0471,0.0479,0.049,0.0486,0.0454,0.0376,0.0298,0.0199,0.0151,0.0065,0.0033,0.0094,0.0078,0.0024,0.0031,-0.0068,-0.0069,-0.0071,-0.0072,-0.0072,0,0.0238,0.0258,0.0314,0.0341,0.0369,0.0414,0.0446,0.0478,0.0499,0.0498,0.0496,0.043,0.0399,0.0231,0.0159,0.0013,0.0015,-0.0053,0.0015,0.0016,0.0003,0.0012,0.0021,-0.0074,-0.0075,-0.0075,-0.0075,0,0.0243,0.0258,0.029,0.034,0.0383,0.0433,0.0478,0.0494,0.0523,0.053,0.05,0.0427,0.0334,0.0227,0.0111,0.0021,-0.0019,-0.0065,-0.0062,0.0001,0.0007,-0.0002,0.0008,-0.0079,-0.0079,-0.0078,-0.0078,0,0.0242,0.0257,0.0296,0.0339,0.0389,0.0434,0.0467,0.0494,0.0515,0.0515,0.0502,0.0418,0.0374,0.0229,0.0127,0.0029,0.0017,-0.0007,-0.0007,-0.0004,0.0075,0.0096,0.0005,0,0,0,0,0,0.0242,0.0259,0.0296,0.0345,0.039,0.0423,0.0479,0.0508,0.0535,0.0514,0.0511,0.043,0.0289,0.0232,0.0131,0.0103,-0.0006,-0.0019,-0.0035,-0.0101,-0.0097,-0.0012,0,0,0,0,0,0,0.0242,0.0273,0.029,0.0338,0.037,0.0427,0.0464,0.0488,0.0481,0.0491,0.0419,0.0396,0.0259,0.0341,0.0124,0.0095,0.007,-0.008,-0.0082,-0.0104,-0.01,-0.0096,-0.0008,0,0,0,0,0]}]]